• In Belarus
  • List of Countries
  • For 7 days
  • Water Temperature
  • Weather Map
  • Weather Widgets
  • user-avatar
    Login

    Hourly Weather Aymen

    Today, 26 January, Sunday

    Time Temperature Precipitation Wind Pressure Humidity
    00:00 -1°C° 0 mm 1 mps 687 mmHg 79%
    01:00 -1°C° 0 mm 1 mps 687 mmHg 80%
    02:00 0°C° 0 mm 1 mps 687 mmHg 81%
    03:00 -1°C° 0.3 mm 1 mps 688 mmHg 85%
    04:00 -1°C° 0.3 mm 1 mps 688 mmHg 89%
    05:00 -3°C° 0.3 mm 2 mps 689 mmHg 93%
    06:00 -3°C° 0.4 mm 2 mps 689 mmHg 93%
    07:00 -3°C° 0.4 mm 2 mps 689 mmHg 94%
    08:00 -4°C° 0.4 mm 3 mps 690 mmHg 94%
    09:00 -3°C° 0.1 mm 2 mps 690 mmHg 94%
    10:00 -3°C° 0.1 mm 2 mps 689 mmHg 94%
    11:00 -2°C° 0.1 mm 2 mps 689 mmHg 93%
    12:00 -2°C° 0.1 mm 2 mps 689 mmHg 94%
    13:00 -2°C° 0.1 mm 2 mps 688 mmHg 94%
    14:00 0°C° 0.1 mm 1 mps 688 mmHg 94%
    15:00 -1°C° 0 mm 1 mps 688 mmHg 93%
    16:00 -1°C° 0 mm 1 mps 688 mmHg 92%
    17:00 -2°C° 0 mm 1 mps 689 mmHg 92%
    18:00 -2°C° 0 mm 1 mps 689 mmHg 89%
    19:00 -2°C° 0 mm 1 mps 689 mmHg 85%
    20:00 -3°C° 0 mm 1 mps 689 mmHg 82%
    21:00 -2°C° 0 mm 1 mps 689 mmHg 81%
    22:00 -4°C° 0 mm 2 mps 689 mmHg 80%
    23:00 -4°C° 0 mm 2 mps 689 mmHg 78%

    Tomorrow, 27 January, Monday

    Time Temperature Precipitation Wind Pressure Humidity
    00:00 -5°C° 0 mm 3 mps 689 mmHg 76%
    01:00 -5°C° 0 mm 3 mps 688 mmHg 74%
    02:00 -5°C° 0 mm 4 mps 688 mmHg 73%
    03:00 -6°C° 0 mm 3 mps 688 mmHg 72%
    04:00 -6°C° 0 mm 3 mps 688 mmHg 71%
    05:00 -7°C° 0 mm 3 mps 687 mmHg 70%
    06:00 -7°C° 0 mm 3 mps 687 mmHg 70%
    07:00 -6°C° 0 mm 2 mps 687 mmHg 70%
    08:00 -6°C° 0 mm 2 mps 687 mmHg 69%
    09:00 -5°C° 0 mm 2 mps 687 mmHg 71%
    10:00 -3°C° 0 mm 2 mps 687 mmHg 73%
    11:00 0°C° 0 mm 1 mps 686 mmHg 75%
    12:00 0°C° 0 mm 1 mps 686 mmHg 78%
    13:00 0°C° 0 mm 1 mps 686 mmHg 80%
    14:00 +1°C° 0 mm 1 mps 685 mmHg 83%
    15:00 0°C° 0 mm 1 mps 685 mmHg 83%
    16:00 -1°C° 0 mm 1 mps 686 mmHg 84%
    17:00 -2°C° 0 mm 1 mps 686 mmHg 84%
    18:00 -5°C° 0 mm 2 mps 686 mmHg 82%
    19:00 -5°C° 0 mm 2 mps 687 mmHg 81%
    20:00 -5°C° 0 mm 2 mps 688 mmHg 79%
    21:00 -5°C° 0.1 mm 2 mps 688 mmHg 83%
    22:00 -5°C° 0.1 mm 2 mps 689 mmHg 87%
    23:00 -5°C° 0.1 mm 2 mps 689 mmHg 91%

    Day after tomorrow, 28 January, Tuesday

    Time Temperature Precipitation Wind Pressure Humidity
    00:00 -5°C° 0.3 mm 2 mps 690 mmHg 92%
    01:00 -5°C° 0.3 mm 2 mps 691 mmHg 92%
    02:00 -5°C° 0.3 mm 2 mps 691 mmHg 93%
    03:00 -5°C° 0.1 mm 2 mps 692 mmHg 89%
    04:00 -6°C° 0.1 mm 3 mps 692 mmHg 84%
    05:00 -6°C° 0.1 mm 3 mps 692 mmHg 80%
    06:00 -5°C° 0 mm 2 mps 692 mmHg 75%
    07:00 -5°C° 0 mm 2 mps 692 mmHg 71%
    08:00 -4°C° 0 mm 1 mps 692 mmHg 66%
    09:00 -2°C° 0 mm 1 mps 692 mmHg 69%
    10:00 -1°C° 0 mm 1 mps 692 mmHg 72%
    11:00 0°C° 0 mm 1 mps 692 mmHg 75%
    12:00 -2°C° 0 mm 2 mps 692 mmHg 80%
    13:00 -2°C° 0 mm 2 mps 692 mmHg 85%
    14:00 -2°C° 0 mm 3 mps 691 mmHg 90%
    15:00 -5°C° 0 mm 3 mps 691 mmHg 88%
    16:00 -6°C° 0 mm 3 mps 692 mmHg 87%
    17:00 -7°C° 0 mm 3 mps 692 mmHg 86%
    18:00 -6°C° 0 mm 2 mps 692 mmHg 82%
    19:00 -7°C° 0 mm 2 mps 693 mmHg 78%
    20:00 -7°C° 0 mm 2 mps 693 mmHg 74%
    21:00 -7°C° 0 mm 2 mps 693 mmHg 73%
    22:00 -7°C° 0 mm 2 mps 693 mmHg 72%
    23:00 -7°C° 0 mm 2 mps 694 mmHg 70%

    29 January, Wednesday

    Time Temperature Precipitation Wind Pressure Humidity
    00:00 -8°C° 0 mm 2 mps 694 mmHg 68%
    01:00 -8°C° 0 mm 2 mps 694 mmHg 66%
    02:00 -7°C° 0 mm 1 mps 694 mmHg 63%
    03:00 -7°C° 0 mm 1 mps 694 mmHg 63%
    04:00 -7°C° 0 mm 1 mps 694 mmHg 62%
    05:00 -7°C° 0 mm 1 mps 694 mmHg 61%
    06:00 -7°C° 0 mm 1 mps 694 mmHg 61%
    07:00 -7°C° 0 mm 1 mps 694 mmHg 61%
    08:00 -6°C° 0 mm 1 mps 695 mmHg 60%
    09:00 -4°C° 0 mm 1 mps 694 mmHg 65%
    10:00 -3°C° 0 mm 1 mps 694 mmHg 70%
    11:00 -1°C° 0 mm 1 mps 694 mmHg 74%
    12:00 -1°C° 0 mm 1 mps 694 mmHg 79%
    13:00 -3°C° 0 mm 2 mps 693 mmHg 84%
    14:00 -3°C° 0 mm 2 mps 693 mmHg 90%
    15:00 -4°C° 0 mm 2 mps 693 mmHg 90%
    16:00 -6°C° 0 mm 2 mps 693 mmHg 91%
    17:00 -7°C° 0 mm 2 mps 692 mmHg 91%
    18:00 -7°C° 0 mm 2 mps 693 mmHg 86%
    19:00 -8°C° 0 mm 2 mps 693 mmHg 81%
    20:00 -8°C° 0 mm 2 mps 693 mmHg 76%
    21:00 -7°C° 0 mm 1 mps 693 mmHg 75%
    22:00 -7°C° 0 mm 1 mps 693 mmHg 73%
    23:00 -8°C° 0 mm 1 mps 692 mmHg 72%

    30 January, Thursday

    Time Temperature Precipitation Wind Pressure Humidity
    00:00 -8°C° 0 mm 1 mps 692 mmHg 71%
    01:00 -8°C° 0 mm 1 mps 692 mmHg 71%
    02:00 -8°C° 0 mm 1 mps 692 mmHg 70%
    03:00 -8°C° 0 mm 1 mps 692 mmHg 71%
    04:00 -8°C° 0 mm 1 mps 692 mmHg 71%
    05:00 -8°C° 0 mm 1 mps 692 mmHg 71%
    06:00 -8°C° 0 mm 1 mps 692 mmHg 72%
    07:00 -8°C° 0 mm 1 mps 692 mmHg 73%
    08:00 -7°C° 0 mm 1 mps 692 mmHg 75%
    09:00 -6°C° 0 mm 1 mps 692 mmHg 76%
    10:00 -4°C° 0 mm 1 mps 692 mmHg 78%
    11:00 -4°C° 0 mm 0 mps 692 mmHg 80%
    12:00 -3°C° 0 mm 1 mps 692 mmHg 82%
    13:00 -3°C° 0 mm 1 mps 692 mmHg 84%
    14:00 -2°C° 0 mm 1 mps 691 mmHg 86%
    15:00 -3°C° 0 mm 1 mps 691 mmHg 86%
    16:00 -5°C° 0 mm 0 mps 691 mmHg 87%
    17:00 -6°C° 0 mm 0 mps 691 mmHg 87%
    18:00 -6°C° 0 mm 0 mps 692 mmHg 85%
    19:00 -6°C° 0 mm 0 mps 692 mmHg 82%
    20:00 -6°C° 0 mm 0 mps 692 mmHg 80%
    21:00 -7°C° 0 mm 1 mps 692 mmHg 80%
    22:00 -7°C° 0 mm 1 mps 692 mmHg 79%
    23:00 -7°C° 0 mm 1 mps 692 mmHg 79%

    31 January, Friday

    Time Temperature Precipitation Wind Pressure Humidity
    00:00 -8°C° 0 mm 1 mps 692 mmHg 78%
    01:00 -8°C° 0 mm 1 mps 692 mmHg 77%
    02:00 -8°C° 0 mm 1 mps 692 mmHg 76%
    03:00 -8°C° 0 mm 1 mps 692 mmHg 75%
    04:00 -8°C° 0 mm 1 mps 692 mmHg 73%
    05:00 -8°C° 0 mm 1 mps 692 mmHg 72%
    06:00 -8°C° 0 mm 1 mps 692 mmHg 71%
    07:00 -8°C° 0 mm 1 mps 692 mmHg 70%
    08:00 -8°C° 0 mm 1 mps 693 mmHg 69%
    09:00 -6°C° 0 mm 1 mps 692 mmHg 71%
    10:00 -4°C° 0 mm 1 mps 692 mmHg 73%
    11:00 -2°C° 0 mm 1 mps 692 mmHg 75%
    12:00 -2°C° 0 mm 1 mps 692 mmHg 77%
    13:00 -2°C° 0 mm 1 mps 692 mmHg 79%
    14:00 -1°C° 0 mm 1 mps 692 mmHg 82%
    15:00 -2°C° 0 mm 1 mps 692 mmHg 81%
    16:00 -6°C° 0 mm 2 mps 692 mmHg 81%
    17:00 -7°C° 0 mm 2 mps 692 mmHg 80%
    18:00 -7°C° 0 mm 2 mps 692 mmHg 76%
    19:00 -7°C° 0 mm 2 mps 693 mmHg 72%
    20:00 -7°C° 0 mm 2 mps 693 mmHg 68%
    21:00 -7°C° 0 mm 2 mps 693 mmHg 65%
    22:00 -8°C° 0 mm 3 mps 693 mmHg 63%
    23:00 -8°C° 0 mm 3 mps 693 mmHg 60%
    Show more